Year,Month,Day,Hour,Minute,Value (Times are PST for temperature in C)
2016,06,11,00,00,10.60
2016,06,11,00,01,10.70
2016,06,11,00,02,10.70
2016,06,11,00,03,10.70
2016,06,11,00,04,10.70
2016,06,11,00,05,10.70
2016,06,11,00,06,10.70
2016,06,11,00,07,10.70
2016,06,11,00,08,10.70
2016,06,11,00,09,10.70
2016,06,11,00,10,10.70
2016,06,11,00,11,10.70
2016,06,11,00,12,10.70
2016,06,11,00,13,10.70
2016,06,11,00,14,10.70
2016,06,11,00,15,10.70
2016,06,11,00,16,10.70
2016,06,11,00,17,10.60
2016,06,11,00,18,10.60
2016,06,11,00,19,10.60
2016,06,11,00,20,10.60
2016,06,11,00,21,10.60
2016,06,11,00,22,10.60
2016,06,11,00,23,10.50
2016,06,11,00,24,10.50
2016,06,11,00,25,10.50
2016,06,11,00,26,10.50
2016,06,11,00,27,10.50
2016,06,11,00,28,10.50
2016,06,11,00,29,10.50
2016,06,11,00,30,10.50
2016,06,11,00,31,10.40
2016,06,11,00,32,10.40
2016,06,11,00,33,10.40
2016,06,11,00,34,10.40
2016,06,11,00,35,10.40
2016,06,11,00,36,10.40
2016,06,11,00,37,10.40
2016,06,11,00,38,10.40
2016,06,11,00,39,10.40
2016,06,11,00,40,10.30
2016,06,11,00,41,10.30
2016,06,11,00,42,10.30
2016,06,11,00,43,10.30
2016,06,11,00,44,10.30
2016,06,11,00,45,10.20
2016,06,11,00,46,10.20
2016,06,11,00,47,10.20
2016,06,11,00,48,10.20
2016,06,11,00,49,10.20
2016,06,11,00,50,10.20
2016,06,11,00,51,10.20
2016,06,11,00,52,10.20
2016,06,11,00,53,10.20
2016,06,11,00,54,10.20
2016,06,11,00,55,10.20
2016,06,11,00,56,10.20
2016,06,11,00,57,10.20
2016,06,11,00,58,10.20
2016,06,11,00,59,10.20
2016,06,11,01,00,10.20
2016,06,11,01,01,10.20
2016,06,11,01,02,10.10
2016,06,11,01,03,10.10
2016,06,11,01,04,10.10
2016,06,11,01,05,10.10
2016,06,11,01,06,10.20
2016,06,11,01,07,10.20
2016,06,11,01,08,10.10
2016,06,11,01,09,10.10
2016,06,11,01,10,10.10
2016,06,11,01,11,10.10
2016,06,11,01,12,10.10
2016,06,11,01,13,10.10
2016,06,11,01,14,10.10
2016,06,11,01,15,10.00
2016,06,11,01,16,10.00
2016,06,11,01,17,10.00
2016,06,11,01,18,9.90
2016,06,11,01,19,9.90
2016,06,11,01,20,9.90
2016,06,11,01,21,9.80
2016,06,11,01,22,9.70
2016,06,11,01,23,9.70
2016,06,11,01,24,9.70
2016,06,11,01,25,9.70
2016,06,11,01,26,9.60
2016,06,11,01,27,9.60
2016,06,11,01,28,9.60
2016,06,11,01,29,9.60
2016,06,11,01,30,9.60
2016,06,11,01,31,9.50
2016,06,11,01,32,9.50
2016,06,11,01,33,9.60
2016,06,11,01,34,9.50
2016,06,11,01,35,9.50
2016,06,11,01,36,9.60
2016,06,11,01,37,9.60
2016,06,11,01,38,9.60
2016,06,11,01,39,9.60
2016,06,11,01,40,9.60
2016,06,11,01,41,9.60
2016,06,11,01,42,9.60
2016,06,11,01,43,9.60
2016,06,11,01,44,9.60
2016,06,11,01,45,9.60
2016,06,11,01,46,9.60
2016,06,11,01,47,9.60
2016,06,11,01,48,9.60
2016,06,11,01,49,9.70
2016,06,11,01,50,9.70
2016,06,11,01,51,9.70
2016,06,11,01,52,9.70
2016,06,11,01,53,9.70
2016,06,11,01,54,9.70
2016,06,11,01,55,9.60
2016,06,11,01,56,9.60
2016,06,11,01,57,9.60
2016,06,11,01,58,9.60
2016,06,11,01,59,9.60
2016,06,11,02,00,9.60
2016,06,11,02,01,9.60
2016,06,11,02,02,9.60
2016,06,11,02,03,9.50
2016,06,11,02,04,9.50
2016,06,11,02,05,9.50
2016,06,11,02,06,9.50
2016,06,11,02,07,9.50
2016,06,11,02,08,9.50
2016,06,11,02,09,9.50
2016,06,11,02,10,9.50
2016,06,11,02,11,9.50
2016,06,11,02,12,9.50
2016,06,11,02,13,9.50
2016,06,11,02,14,9.50
2016,06,11,02,15,9.50
2016,06,11,02,16,9.40
2016,06,11,02,17,9.40
2016,06,11,02,18,9.40
2016,06,11,02,19,9.50
2016,06,11,02,20,9.50
2016,06,11,02,21,9.50
2016,06,11,02,22,9.50
2016,06,11,02,23,9.40
2016,06,11,02,24,9.50
2016,06,11,02,25,9.40
2016,06,11,02,26,9.50
2016,06,11,02,27,9.50
2016,06,11,02,28,9.50
2016,06,11,02,29,9.50
2016,06,11,02,30,9.50
2016,06,11,02,31,9.50
2016,06,11,02,32,9.50
2016,06,11,02,33,9.50
2016,06,11,02,34,9.50
2016,06,11,02,35,9.50
2016,06,11,02,36,9.50
2016,06,11,02,37,9.50
2016,06,11,02,38,9.50
2016,06,11,02,39,9.50
2016,06,11,02,40,9.60
2016,06,11,02,41,9.50
2016,06,11,02,42,9.50
2016,06,11,02,43,9.50
2016,06,11,02,44,9.50
2016,06,11,02,45,9.50
2016,06,11,02,46,9.50
2016,06,11,02,47,9.50
2016,06,11,02,48,9.50
2016,06,11,02,49,9.50
2016,06,11,02,50,9.50
2016,06,11,02,51,9.50
2016,06,11,02,52,9.50
2016,06,11,02,53,9.50
2016,06,11,02,54,9.50
2016,06,11,02,55,9.40
2016,06,11,02,56,9.40
2016,06,11,02,57,9.40
2016,06,11,02,58,9.40
2016,06,11,02,59,9.40
2016,06,11,03,00,9.40
2016,06,11,03,01,9.40
2016,06,11,03,02,9.30
2016,06,11,03,03,9.30
2016,06,11,03,04,9.30
2016,06,11,03,05,9.30
2016,06,11,03,06,9.30
2016,06,11,03,07,9.30
2016,06,11,03,08,9.30
2016,06,11,03,09,9.30
2016,06,11,03,10,9.20
2016,06,11,03,11,9.20
2016,06,11,03,12,9.20
2016,06,11,03,13,9.20
2016,06,11,03,14,9.20
2016,06,11,03,15,9.20
2016,06,11,03,16,9.20
2016,06,11,03,17,9.20
2016,06,11,03,18,9.20
2016,06,11,03,19,9.20
2016,06,11,03,20,9.20
2016,06,11,03,21,9.20
2016,06,11,03,22,9.30
2016,06,11,03,23,9.20
2016,06,11,03,24,9.30
2016,06,11,03,25,9.30
2016,06,11,03,26,9.30
2016,06,11,03,27,9.30
2016,06,11,03,28,9.30
2016,06,11,03,29,9.30
2016,06,11,03,30,9.20
2016,06,11,03,31,9.20
2016,06,11,03,32,9.20
2016,06,11,03,33,9.30
2016,06,11,03,34,9.30
2016,06,11,03,35,9.30
2016,06,11,03,36,9.30
2016,06,11,03,37,9.40
2016,06,11,03,38,9.40
2016,06,11,03,39,9.40
2016,06,11,03,40,9.40
2016,06,11,03,41,9.40
2016,06,11,03,42,9.40
2016,06,11,03,43,9.50
2016,06,11,03,44,9.50
2016,06,11,03,45,9.50
2016,06,11,03,46,9.50
2016,06,11,03,47,9.50
2016,06,11,03,48,9.50
2016,06,11,03,49,9.50
2016,06,11,03,50,9.50
2016,06,11,03,51,9.50
2016,06,11,03,52,9.50
2016,06,11,03,53,9.50
2016,06,11,03,54,9.50
2016,06,11,03,55,9.50
2016,06,11,03,56,9.60
2016,06,11,03,57,9.60
2016,06,11,03,58,9.60
2016,06,11,03,59,9.60
2016,06,11,04,00,9.60
2016,06,11,04,01,9.60
2016,06,11,04,02,9.60
2016,06,11,04,03,9.60
2016,06,11,04,04,9.60
2016,06,11,04,05,9.60
2016,06,11,04,06,9.60
2016,06,11,04,07,9.60
2016,06,11,04,08,9.60
2016,06,11,04,09,9.60
2016,06,11,04,10,9.60
2016,06,11,04,11,9.60
2016,06,11,04,12,9.60
2016,06,11,04,13,9.60
2016,06,11,04,14,9.60
2016,06,11,04,15,9.60
2016,06,11,04,16,9.60
2016,06,11,04,17,9.60
2016,06,11,04,18,9.60
2016,06,11,04,19,9.60
2016,06,11,04,20,9.60
2016,06,11,04,21,9.60
2016,06,11,04,22,9.60
2016,06,11,04,23,9.60
2016,06,11,04,24,9.60
2016,06,11,04,25,9.60
2016,06,11,04,26,9.60
2016,06,11,04,27,9.60
2016,06,11,04,28,9.60
2016,06,11,04,29,9.60
2016,06,11,04,30,9.60
2016,06,11,04,31,9.60
2016,06,11,04,32,9.60
2016,06,11,04,33,9.60
2016,06,11,04,34,9.60
2016,06,11,04,35,9.60
2016,06,11,04,36,9.60
2016,06,11,04,37,9.60
2016,06,11,04,38,9.60
2016,06,11,04,39,9.60
2016,06,11,04,40,9.60
2016,06,11,04,41,9.70
2016,06,11,04,42,9.70
2016,06,11,04,43,9.70
2016,06,11,04,44,9.70
2016,06,11,04,45,9.70
2016,06,11,04,46,9.70
2016,06,11,04,47,9.70
2016,06,11,04,48,9.70
2016,06,11,04,49,9.70
2016,06,11,04,50,9.70
2016,06,11,04,51,9.70
2016,06,11,04,52,9.70
2016,06,11,04,53,9.70
2016,06,11,04,54,9.70
2016,06,11,04,55,9.70
2016,06,11,04,56,9.70
2016,06,11,04,57,9.80
2016,06,11,04,58,9.80
2016,06,11,04,59,9.80
2016,06,11,05,00,9.80
2016,06,11,05,01,9.80
2016,06,11,05,02,9.90
2016,06,11,05,03,9.90
2016,06,11,05,04,9.90
2016,06,11,05,05,9.90
2016,06,11,05,06,10.00
2016,06,11,05,07,10.10
2016,06,11,05,08,10.10
2016,06,11,05,09,10.10
2016,06,11,05,10,10.20
2016,06,11,05,11,10.20
2016,06,11,05,12,10.20
2016,06,11,05,13,10.30
2016,06,11,05,14,10.30
2016,06,11,05,15,10.40
2016,06,11,05,16,10.40
2016,06,11,05,17,10.50
2016,06,11,05,18,10.60
2016,06,11,05,19,10.60
2016,06,11,05,20,10.70
2016,06,11,05,21,10.70
2016,06,11,05,22,10.80
2016,06,11,05,23,10.80
2016,06,11,05,24,10.80
2016,06,11,05,25,10.90
2016,06,11,05,26,10.90
2016,06,11,05,27,10.90
2016,06,11,05,28,10.90
2016,06,11,05,29,11.00
2016,06,11,05,30,11.00
2016,06,11,05,31,11.00
2016,06,11,05,32,11.10
2016,06,11,05,33,11.10
2016,06,11,05,34,11.10
2016,06,11,05,35,11.10
2016,06,11,05,36,11.10
2016,06,11,05,37,11.10
2016,06,11,05,38,11.10
2016,06,11,05,39,11.10
2016,06,11,05,40,11.10
2016,06,11,05,41,11.10
2016,06,11,05,42,11.10
2016,06,11,05,43,11.10
2016,06,11,05,44,11.10
2016,06,11,05,45,11.10
2016,06,11,05,46,11.20
2016,06,11,05,47,11.20
2016,06,11,05,48,11.20
2016,06,11,05,49,11.30
2016,06,11,05,50,11.30
2016,06,11,05,51,11.30
2016,06,11,05,52,11.30
2016,06,11,05,53,11.40
2016,06,11,05,54,11.40
2016,06,11,05,55,11.40
2016,06,11,05,56,11.40
2016,06,11,05,57,11.40
2016,06,11,05,58,11.40
2016,06,11,05,59,11.40
2016,06,11,06,00,11.40
2016,06,11,06,01,11.40
2016,06,11,06,02,11.40
2016,06,11,06,03,11.40
2016,06,11,06,04,11.40
2016,06,11,06,05,11.40
2016,06,11,06,06,11.40
2016,06,11,06,07,11.40
2016,06,11,06,08,11.50
2016,06,11,06,09,11.50
2016,06,11,06,10,11.50
2016,06,11,06,11,11.50
2016,06,11,06,12,11.50
2016,06,11,06,13,11.50
2016,06,11,06,14,11.60
2016,06,11,06,15,11.60
2016,06,11,06,16,11.60
2016,06,11,06,17,11.60
2016,06,11,06,18,11.60
2016,06,11,06,19,11.60
2016,06,11,06,20,11.60
2016,06,11,06,21,11.60
2016,06,11,06,22,11.60
2016,06,11,06,23,11.60
2016,06,11,06,24,11.60
2016,06,11,06,25,11.60
2016,06,11,06,26,11.70
2016,06,11,06,27,11.70
2016,06,11,06,28,11.70
2016,06,11,06,29,11.70
2016,06,11,06,30,11.70
2016,06,11,06,31,11.80
2016,06,11,06,32,11.80
2016,06,11,06,33,11.80
2016,06,11,06,34,11.80
2016,06,11,06,35,11.80
2016,06,11,06,36,11.90
2016,06,11,06,37,11.90
2016,06,11,06,38,11.90
2016,06,11,06,39,11.90
2016,06,11,06,40,11.90
2016,06,11,06,41,11.90
2016,06,11,06,42,12.00
2016,06,11,06,43,12.00
2016,06,11,06,44,12.00
2016,06,11,06,45,12.00
2016,06,11,06,46,12.00
2016,06,11,06,47,12.00
2016,06,11,06,48,12.00
2016,06,11,06,49,12.00
2016,06,11,06,50,12.10
2016,06,11,06,51,12.00
2016,06,11,06,52,12.10
2016,06,11,06,53,12.10
2016,06,11,06,54,12.10
2016,06,11,06,55,12.10
2016,06,11,06,56,12.10
2016,06,11,06,57,12.10
2016,06,11,06,58,12.10
2016,06,11,06,59,12.10
2016,06,11,07,00,12.20
2016,06,11,07,01,12.20
2016,06,11,07,02,12.20
2016,06,11,07,03,12.20
2016,06,11,07,04,12.20
2016,06,11,07,05,12.20
2016,06,11,07,06,12.20
2016,06,11,07,07,12.20
2016,06,11,07,08,12.20
2016,06,11,07,09,12.20
2016,06,11,07,10,12.20
2016,06,11,07,11,12.30
2016,06,11,07,12,12.30
2016,06,11,07,13,12.30
2016,06,11,07,14,12.30
2016,06,11,07,15,12.30
2016,06,11,07,16,12.40
2016,06,11,07,17,12.40
2016,06,11,07,18,12.40
2016,06,11,07,19,12.50
2016,06,11,07,20,12.50
2016,06,11,07,21,12.60
2016,06,11,07,22,12.60
2016,06,11,07,23,12.70
2016,06,11,07,24,12.70
2016,06,11,07,25,12.80
2016,06,11,07,26,12.80
2016,06,11,07,27,12.90
2016,06,11,07,28,12.90
2016,06,11,07,29,12.90
2016,06,11,07,30,12.90
2016,06,11,07,31,12.90
2016,06,11,07,32,13.00
2016,06,11,07,33,13.00
2016,06,11,07,34,13.00
2016,06,11,07,35,13.00
2016,06,11,07,36,13.10
2016,06,11,07,37,13.10
2016,06,11,07,38,13.10
2016,06,11,07,39,13.20
2016,06,11,07,40,13.20
2016,06,11,07,41,13.20
2016,06,11,07,42,13.20
2016,06,11,07,43,13.20
2016,06,11,07,44,13.20
2016,06,11,07,45,13.20
2016,06,11,07,46,13.20
2016,06,11,07,47,13.20
2016,06,11,07,48,13.20
2016,06,11,07,49,13.20
2016,06,11,07,50,13.20
2016,06,11,07,51,13.20
2016,06,11,07,52,13.20
2016,06,11,07,53,13.20
2016,06,11,07,54,13.20
2016,06,11,07,55,13.20
2016,06,11,07,56,13.20
2016,06,11,07,57,13.20
2016,06,11,07,58,13.20
2016,06,11,07,59,13.30
2016,06,11,08,00,13.30
2016,06,11,08,01,13.40
2016,06,11,08,02,13.50
2016,06,11,08,03,13.50
2016,06,11,08,04,13.60
2016,06,11,08,05,13.70
2016,06,11,08,06,13.70
2016,06,11,08,07,13.70
2016,06,11,08,08,13.80
2016,06,11,08,09,13.80
2016,06,11,08,10,13.90
2016,06,11,08,11,13.90
2016,06,11,08,12,14.00
2016,06,11,08,13,14.10
2016,06,11,08,14,14.10
2016,06,11,08,15,14.10
2016,06,11,08,16,14.10
2016,06,11,08,17,14.10
2016,06,11,08,18,14.10
2016,06,11,08,19,14.10
2016,06,11,08,20,14.10
2016,06,11,08,21,14.10
2016,06,11,08,22,14.10
2016,06,11,08,23,14.10
2016,06,11,08,24,14.00
2016,06,11,08,25,14.00
2016,06,11,08,26,14.00
2016,06,11,08,27,14.00
2016,06,11,08,28,14.00
2016,06,11,08,29,14.00
2016,06,11,08,30,14.00
2016,06,11,08,31,14.00
2016,06,11,08,32,14.10
2016,06,11,08,33,14.10
2016,06,11,08,34,14.10
2016,06,11,08,35,14.10
2016,06,11,08,36,14.10
2016,06,11,08,37,14.10
2016,06,11,08,38,14.10
2016,06,11,08,39,14.10
2016,06,11,08,40,14.10
2016,06,11,08,41,14.10
2016,06,11,08,42,14.10
2016,06,11,08,43,14.10
2016,06,11,08,44,14.10
2016,06,11,08,45,14.10
2016,06,11,08,46,14.20
2016,06,11,08,47,14.20
2016,06,11,08,48,14.20
2016,06,11,08,49,14.20
2016,06,11,08,50,14.30
2016,06,11,08,51,14.30
2016,06,11,08,52,14.30
2016,06,11,08,53,14.30
2016,06,11,08,54,14.30
2016,06,11,08,55,14.30
2016,06,11,08,56,14.30
2016,06,11,08,57,14.30
2016,06,11,08,58,14.30
2016,06,11,08,59,14.30
2016,06,11,09,00,14.30
2016,06,11,09,01,14.30
2016,06,11,09,02,14.30
2016,06,11,09,03,14.20
2016,06,11,09,04,14.20
2016,06,11,09,05,14.20
2016,06,11,09,06,14.20
2016,06,11,09,07,14.20
2016,06,11,09,08,14.20
2016,06,11,09,09,14.20
2016,06,11,09,10,14.20
2016,06,11,09,11,14.20
2016,06,11,09,12,14.20
2016,06,11,09,13,14.20
2016,06,11,09,14,14.30
2016,06,11,09,15,14.30
2016,06,11,09,16,14.30
2016,06,11,09,17,14.30
2016,06,11,09,18,14.30
2016,06,11,09,19,14.30
2016,06,11,09,20,14.30
2016,06,11,09,21,14.30
2016,06,11,09,22,14.30
2016,06,11,09,23,14.20
2016,06,11,09,24,14.20
2016,06,11,09,25,14.30
2016,06,11,09,26,14.30
2016,06,11,09,27,14.30
2016,06,11,09,28,14.30
2016,06,11,09,29,14.30
2016,06,11,09,30,14.30
2016,06,11,09,31,14.30
2016,06,11,09,32,14.30
2016,06,11,09,33,14.30
2016,06,11,09,34,14.30
2016,06,11,09,35,14.30
2016,06,11,09,36,14.30
2016,06,11,09,37,14.40
2016,06,11,09,38,14.40
2016,06,11,09,39,14.40
2016,06,11,09,40,14.40
2016,06,11,09,41,14.50
2016,06,11,09,42,14.50
2016,06,11,09,43,14.60
2016,06,11,09,44,14.60
2016,06,11,09,45,14.60
2016,06,11,09,46,14.70
2016,06,11,09,47,14.70
2016,06,11,09,48,14.70
2016,06,11,09,49,14.70
2016,06,11,09,50,14.80
2016,06,11,09,51,14.80
2016,06,11,09,52,14.80
2016,06,11,09,53,14.70
2016,06,11,09,54,14.60
2016,06,11,09,55,14.60
2016,06,11,09,56,14.50
2016,06,11,09,57,14.40
2016,06,11,09,58,14.40
2016,06,11,09,59,14.30
2016,06,11,10,00,14.20
2016,06,11,10,01,14.10
2016,06,11,10,02,14.00
2016,06,11,10,03,13.90
2016,06,11,10,04,13.90
2016,06,11,10,05,13.80
2016,06,11,10,06,13.80
2016,06,11,10,07,13.80
2016,06,11,10,08,13.70
2016,06,11,10,09,13.70
2016,06,11,10,10,13.70
2016,06,11,10,11,13.60
2016,06,11,10,12,13.60
2016,06,11,10,13,13.60
2016,06,11,10,14,13.60
2016,06,11,10,15,13.60
2016,06,11,10,16,13.60
2016,06,11,10,17,13.60
2016,06,11,10,18,13.60
2016,06,11,10,19,13.60
2016,06,11,10,20,13.50
2016,06,11,10,21,13.50
2016,06,11,10,22,13.50
2016,06,11,10,23,13.50
2016,06,11,10,24,13.40
2016,06,11,10,25,13.40
2016,06,11,10,26,13.40
2016,06,11,10,27,13.40
2016,06,11,10,28,13.40
2016,06,11,10,29,13.40
2016,06,11,10,30,13.40
2016,06,11,10,31,13.40
2016,06,11,10,32,13.40
2016,06,11,10,33,13.40
2016,06,11,10,34,13.40
2016,06,11,10,35,13.40
2016,06,11,10,36,13.40
2016,06,11,10,37,13.40
2016,06,11,10,38,13.40
2016,06,11,10,39,13.40
2016,06,11,10,40,13.40
2016,06,11,10,41,13.40
2016,06,11,10,42,13.40
2016,06,11,10,43,13.50
2016,06,11,10,44,13.50
2016,06,11,10,45,13.60
2016,06,11,10,46,13.60
2016,06,11,10,47,13.60
2016,06,11,10,48,13.60
2016,06,11,10,49,13.70
2016,06,11,10,50,13.70
2016,06,11,10,51,13.80
2016,06,11,10,52,13.90
2016,06,11,10,53,13.90
2016,06,11,10,54,14.00
2016,06,11,10,55,14.10
2016,06,11,10,56,14.20
2016,06,11,10,57,14.20
2016,06,11,10,58,14.30
2016,06,11,10,59,14.30
2016,06,11,11,00,14.40
2016,06,11,11,01,14.50
2016,06,11,11,02,14.50
2016,06,11,11,03,14.60
2016,06,11,11,04,14.70
2016,06,11,11,05,14.70
2016,06,11,11,06,14.80
2016,06,11,11,07,14.80
2016,06,11,11,08,14.80
2016,06,11,11,09,14.90
2016,06,11,11,10,14.90
2016,06,11,11,11,14.90
2016,06,11,11,12,15.00
2016,06,11,11,13,15.00
2016,06,11,11,14,15.10
2016,06,11,11,15,15.10
2016,06,11,11,16,15.10
2016,06,11,11,17,15.10
2016,06,11,11,18,15.10
2016,06,11,11,19,15.10
2016,06,11,11,20,15.10
2016,06,11,11,21,15.10
2016,06,11,11,22,15.10
2016,06,11,11,23,15.20
2016,06,11,11,24,15.20
2016,06,11,11,25,15.20
2016,06,11,11,26,15.20
2016,06,11,11,27,15.20
2016,06,11,11,28,15.20
2016,06,11,11,29,15.20
2016,06,11,11,30,15.20
2016,06,11,11,31,15.20
2016,06,11,11,32,15.30
2016,06,11,11,33,15.30
2016,06,11,11,34,15.40
2016,06,11,11,35,15.40
2016,06,11,11,36,15.40
2016,06,11,11,37,15.40
2016,06,11,11,38,15.50
2016,06,11,11,39,15.50
2016,06,11,11,40,15.60
2016,06,11,11,41,15.60
2016,06,11,11,42,15.70
2016,06,11,11,43,15.70
2016,06,11,11,44,15.70
2016,06,11,11,45,15.70
2016,06,11,11,46,15.70
2016,06,11,11,47,15.70
2016,06,11,11,48,15.70
2016,06,11,11,49,15.80
2016,06,11,11,50,15.80
2016,06,11,11,51,15.80
2016,06,11,11,52,15.80
2016,06,11,11,53,15.80
2016,06,11,11,54,15.80
2016,06,11,11,55,15.80
2016,06,11,11,56,15.70
2016,06,11,11,57,15.70
2016,06,11,11,58,15.70
2016,06,11,11,59,15.70
2016,06,11,12,00,15.70
2016,06,11,12,01,15.70
2016,06,11,12,02,15.70
2016,06,11,12,03,15.70
2016,06,11,12,04,15.70
2016,06,11,12,05,15.70
2016,06,11,12,06,15.60
2016,06,11,12,07,15.60
2016,06,11,12,08,15.60
2016,06,11,12,09,15.60
2016,06,11,12,10,15.60
2016,06,11,12,11,15.60
2016,06,11,12,12,15.60
2016,06,11,12,13,15.60
2016,06,11,12,14,15.70
2016,06,11,12,15,15.70
2016,06,11,12,16,15.70
2016,06,11,12,17,15.70
2016,06,11,12,18,15.70
2016,06,11,12,19,15.70
2016,06,11,12,20,15.70
2016,06,11,12,21,15.70
2016,06,11,12,22,15.80
2016,06,11,12,23,15.80
2016,06,11,12,24,15.70
2016,06,11,12,25,15.70
2016,06,11,12,26,15.70
2016,06,11,12,27,15.70
2016,06,11,12,28,15.70
2016,06,11,12,29,15.80
2016,06,11,12,30,15.80
2016,06,11,12,31,15.90
2016,06,11,12,32,16.00
2016,06,11,12,33,16.10
2016,06,11,12,34,16.10
2016,06,11,12,35,16.10
2016,06,11,12,36,16.10
2016,06,11,12,37,16.10
2016,06,11,12,38,16.10
2016,06,11,12,39,16.20
2016,06,11,12,40,16.20
2016,06,11,12,41,16.20
2016,06,11,12,42,16.20
2016,06,11,12,43,16.20
2016,06,11,12,44,16.20
2016,06,11,12,45,16.20
2016,06,11,12,46,16.30
2016,06,11,12,47,16.30
2016,06,11,12,48,16.30
2016,06,11,12,49,16.30
2016,06,11,12,50,16.30
2016,06,11,12,51,16.30
2016,06,11,12,52,16.30
2016,06,11,12,53,16.30
2016,06,11,12,54,16.30
2016,06,11,12,55,16.30
2016,06,11,12,56,16.30
2016,06,11,12,57,16.30
2016,06,11,12,58,16.30
2016,06,11,12,59,16.30
2016,06,11,13,00,16.20
2016,06,11,13,01,16.10
2016,06,11,13,02,16.10
2016,06,11,13,03,16.00
2016,06,11,13,04,15.90
2016,06,11,13,05,15.90
2016,06,11,13,06,15.80
2016,06,11,13,07,15.80
2016,06,11,13,08,15.80
2016,06,11,13,09,15.80
2016,06,11,13,10,15.70
2016,06,11,13,11,15.70
2016,06,11,13,12,15.70
2016,06,11,13,13,15.70
2016,06,11,13,14,15.70
2016,06,11,13,15,15.70
2016,06,11,13,16,15.70
2016,06,11,13,17,15.70
2016,06,11,13,18,15.70
2016,06,11,13,19,15.70
2016,06,11,13,20,15.80
2016,06,11,13,21,15.80
2016,06,11,13,22,15.90
2016,06,11,13,23,16.00
2016,06,11,13,24,16.00
2016,06,11,13,25,16.10
2016,06,11,13,26,16.10
2016,06,11,13,27,16.20
2016,06,11,13,28,16.20
2016,06,11,13,29,16.30
2016,06,11,13,30,16.30
2016,06,11,13,31,16.30
2016,06,11,13,32,16.30
2016,06,11,13,33,16.30
2016,06,11,13,34,16.30
2016,06,11,13,35,16.30
2016,06,11,13,36,16.30
2016,06,11,13,37,16.30
2016,06,11,13,38,16.30
2016,06,11,13,39,16.40
2016,06,11,13,40,16.40
2016,06,11,13,41,16.40
2016,06,11,13,42,16.50
2016,06,11,13,43,16.50
2016,06,11,13,44,16.60
2016,06,11,13,45,16.60
2016,06,11,13,46,16.70
2016,06,11,13,47,16.70
2016,06,11,13,48,16.70
2016,06,11,13,49,16.70
2016,06,11,13,50,16.70
2016,06,11,13,51,16.70
2016,06,11,13,52,16.70
2016,06,11,13,53,16.70
2016,06,11,13,54,16.60
2016,06,11,13,55,16.60
2016,06,11,13,56,16.50
2016,06,11,13,57,16.40
2016,06,11,13,58,16.40
2016,06,11,13,59,16.40
2016,06,11,14,00,16.40
2016,06,11,14,01,16.50
2016,06,11,14,02,16.40
2016,06,11,14,03,16.40
2016,06,11,14,04,16.50
2016,06,11,14,05,16.40
2016,06,11,14,06,16.40
2016,06,11,14,07,16.40
2016,06,11,14,08,16.30
2016,06,11,14,09,16.40
2016,06,11,14,10,16.40
2016,06,11,14,11,16.40
2016,06,11,14,12,16.40
2016,06,11,14,13,16.40
2016,06,11,14,14,16.40
2016,06,11,14,15,16.40
2016,06,11,14,16,16.40
2016,06,11,14,17,16.40
2016,06,11,14,18,16.40
2016,06,11,14,19,16.40
2016,06,11,14,20,16.30
2016,06,11,14,21,16.30
2016,06,11,14,22,16.30
2016,06,11,14,23,16.30
2016,06,11,14,24,16.30
2016,06,11,14,25,16.20
2016,06,11,14,26,16.20
2016,06,11,14,27,16.20
2016,06,11,14,28,16.20
2016,06,11,14,29,16.20
2016,06,11,14,30,16.20
2016,06,11,14,31,16.20
2016,06,11,14,32,16.30
2016,06,11,14,33,16.40
2016,06,11,14,34,16.40
2016,06,11,14,35,16.50
2016,06,11,14,36,16.60
2016,06,11,14,37,16.60
2016,06,11,14,38,16.70
2016,06,11,14,39,16.80
2016,06,11,14,40,16.80
2016,06,11,14,41,16.90
2016,06,11,14,42,17.00
2016,06,11,14,43,17.10
2016,06,11,14,44,17.20
2016,06,11,14,45,17.20
2016,06,11,14,46,17.30
2016,06,11,14,47,17.40
2016,06,11,14,48,17.50
2016,06,11,14,49,17.50
2016,06,11,14,50,17.50
2016,06,11,14,51,17.60
2016,06,11,14,52,17.60
2016,06,11,14,53,17.60
2016,06,11,14,54,17.60
2016,06,11,14,55,17.60
2016,06,11,14,56,17.60
2016,06,11,14,57,17.60
2016,06,11,14,58,17.70
2016,06,11,14,59,17.70
2016,06,11,15,00,17.80
2016,06,11,15,01,17.80
2016,06,11,15,02,17.80
2016,06,11,15,03,17.80
2016,06,11,15,04,17.80
2016,06,11,15,05,17.80
2016,06,11,15,06,17.80
2016,06,11,15,07,17.90
2016,06,11,15,08,18.00
2016,06,11,15,09,18.10
2016,06,11,15,10,18.20
2016,06,11,15,11,18.30
2016,06,11,15,12,18.30
2016,06,11,15,13,18.40
2016,06,11,15,14,18.50
2016,06,11,15,15,18.60
2016,06,11,15,16,18.60
2016,06,11,15,17,18.50
2016,06,11,15,18,18.50
2016,06,11,15,19,18.30
2016,06,11,15,20,18.20
2016,06,11,15,21,18.20
2016,06,11,15,22,18.20
2016,06,11,15,23,18.30
2016,06,11,15,24,18.30
2016,06,11,15,25,18.40
2016,06,11,15,26,18.40
2016,06,11,15,27,18.50
2016,06,11,15,28,18.60
2016,06,11,15,29,18.70
2016,06,11,15,30,18.80
2016,06,11,15,31,18.90
2016,06,11,15,32,19.00
2016,06,11,15,33,19.00
2016,06,11,15,34,19.10
2016,06,11,15,35,19.10
2016,06,11,15,36,19.10
2016,06,11,15,37,19.10
2016,06,11,15,38,19.10
2016,06,11,15,39,19.10
2016,06,11,15,40,19.00
2016,06,11,15,41,18.90
2016,06,11,15,42,18.90
2016,06,11,15,43,18.90
2016,06,11,15,44,18.90
2016,06,11,15,45,18.90
2016,06,11,15,46,19.00
2016,06,11,15,47,18.90
2016,06,11,15,48,18.80
2016,06,11,15,49,18.80
2016,06,11,15,50,18.80
2016,06,11,15,51,18.80
2016,06,11,15,52,18.90
2016,06,11,15,53,18.90
2016,06,11,15,54,19.00
2016,06,11,15,55,19.00
2016,06,11,15,56,19.10
2016,06,11,15,57,19.10
2016,06,11,15,58,19.10
2016,06,11,15,59,19.00
2016,06,11,16,00,18.90
2016,06,11,16,01,18.90
2016,06,11,16,02,18.90
2016,06,11,16,03,18.80
2016,06,11,16,04,18.80
2016,06,11,16,05,18.80
2016,06,11,16,06,18.80
2016,06,11,16,07,18.80
2016,06,11,16,08,18.70
2016,06,11,16,09,18.70
2016,06,11,16,10,18.70
2016,06,11,16,11,18.60
2016,06,11,16,12,18.50
2016,06,11,16,13,18.50
2016,06,11,16,14,18.40
2016,06,11,16,15,18.40
2016,06,11,16,16,18.40
2016,06,11,16,17,18.40
2016,06,11,16,18,18.40
2016,06,11,16,19,18.40
2016,06,11,16,20,18.30
2016,06,11,16,21,18.20
2016,06,11,16,22,18.20
2016,06,11,16,23,18.10
2016,06,11,16,24,18.10
2016,06,11,16,25,18.10
2016,06,11,16,26,18.00
2016,06,11,16,27,18.10
2016,06,11,16,28,18.10
2016,06,11,16,29,18.10
2016,06,11,16,30,18.00
2016,06,11,16,31,18.00
2016,06,11,16,32,18.10
2016,06,11,16,33,18.10
2016,06,11,16,34,18.10
2016,06,11,16,35,18.20
2016,06,11,16,36,18.20
2016,06,11,16,37,18.20
2016,06,11,16,38,18.20
2016,06,11,16,39,18.20
2016,06,11,16,40,18.20
2016,06,11,16,41,18.20
2016,06,11,16,42,18.20
2016,06,11,16,43,18.20
2016,06,11,16,44,18.20
2016,06,11,16,45,18.20
2016,06,11,16,46,18.20
2016,06,11,16,47,18.20
2016,06,11,16,48,18.20
2016,06,11,16,49,18.20
2016,06,11,16,50,18.20
2016,06,11,16,51,18.20
2016,06,11,16,52,18.10
2016,06,11,16,53,18.10
2016,06,11,16,54,18.00
2016,06,11,16,55,18.00
2016,06,11,16,56,18.00
2016,06,11,16,57,18.00
2016,06,11,16,58,18.10
2016,06,11,16,59,18.00
2016,06,11,17,00,18.00
2016,06,11,17,01,18.00
2016,06,11,17,02,18.00
2016,06,11,17,03,18.00
2016,06,11,17,04,18.00
2016,06,11,17,05,18.00
2016,06,11,17,06,18.00
2016,06,11,17,07,18.00
2016,06,11,17,08,18.00
2016,06,11,17,09,17.90
2016,06,11,17,10,17.90
2016,06,11,17,11,17.90
2016,06,11,17,12,17.90
2016,06,11,17,13,17.90
2016,06,11,17,14,17.90
2016,06,11,17,15,17.90
2016,06,11,17,16,17.80
2016,06,11,17,17,17.70
2016,06,11,17,18,17.70
2016,06,11,17,19,17.70
2016,06,11,17,20,17.70
2016,06,11,17,21,17.70
2016,06,11,17,22,17.70
2016,06,11,17,23,17.70
2016,06,11,17,24,17.70
2016,06,11,17,25,17.60
2016,06,11,17,26,17.60
2016,06,11,17,27,17.60
2016,06,11,17,28,17.60
2016,06,11,17,29,17.60